Location: Luxembourg
(49.6117°N, 6.1300°E)
Time: 13:14:37
(UTC+02:00)

Tiangong 2 - Pass Details

Date: 24 May 2019
Orbit: 376 x 389 km, 42.8° (Epoch: 20 June)

Event Time Altitude Azimuth Distance (km) Brightness Sun altitude
Rises 22:09:48 0° 246° (WSW) 2,235 5.3 -6.5°
Reaches altitude 10° 22:12:06 10° 232° (SW) 1,382 4.0 -6.8°
Maximum altitude 22:14:38 23° 177° (S) 859 2.4 -7.1°
Drops below altitude 10° 22:17:10 10° 122° (ESE) 1,381 3.2 -7.4°
Enters shadow 22:17:15 10° 122° (ESE) 1,410 3.3 -7.4°
